Flag Weather past 2 weeks in Kaiserslautern, Rhineland-Palatinate, Germany

Now
46 °F

Cool.


Feels Like: 46 °F
Forecast: 45 / 60 °F
Wind: No wind

Location: Ramstein

Current Time: Nov 1, 2014 at 10:12:08 AM

Latest Report: Nov 1, 2014 at 9:02 AM


Visibility: N/A

Pressure: 30.23 "Hg

Humidity: 93%

Dew point: 45 °F

Location of KaiserslauternLocation

Historic Weather in Kaiserslautern — Graph

°F

Kaiserslautern temperature yesterday

Maximum temperature yesterday: 63 °F (at 2:58 PM)
Minimum temperature yesterday: 46 °F (at 9:02 PM)
Average temperature yesterday: 52 °F

Past Weeks' High & Low Weather Summary

 TemperatureHumidityPressure
High73 °F (Oct 19, 3:58 PM)100% (Oct 17, 9:58 PM)30.34 "Hg (Oct 17, 9:58 PM)
Low32 °F (Oct 24, 7:58 AM)42% (Oct 24, 2:58 PM)29.64 "Hg (Oct 21, 4:58 PM)
Average51 °F83%30.16 "Hg
* Reported Oct 17 10:58 AM — Nov 1 9:02 AM, Kaiserslautern, Weather by CustomWeather, © 2014

Note: Actual official high and low records may vary slightly from our data, if they occured in-between our weather recording intervals... More about our weather records

Advertising

Kaiserslautern weather history for previous 24 hours

 ConditionsComfort  
Time TempWeatherWind HumidityBarometerVisibility
9:02 AM
Nov 1
46 °FCool.No wind93%30.23 "HgN/A
8:58 AM46 °FCool.No wind93%30.25 "HgN/A
7:58 AM46 °FCool.No wind95%30.24 "HgN/A
6:58 AM46 °FFog.No wind96%30.23 "Hg0 mi
5:58 AM46 °FFog.1 mph96%30.23 "Hg0 mi
5:02 AM46 °FFog.2 mph100%30.20 "Hg0 mi
4:58 AM46 °FFog.1 mph100%30.21 "Hg0 mi
3:58 AM47 °FFog.No wind97%30.22 "Hg1 mi
2:58 AM48 °FFog.No wind94%30.23 "Hg0 mi
1:58 AM48 °FCool.No wind100%30.24 "HgN/A
12:58 AM48 °FFog.No wind100%30.25 "Hg0 mi
12:03 AM48 °FCool.1 mph100%30.25 "HgN/A
11:58 PM
Oct 31
49 °FCool.1 mph97%30.27 "HgN/A
10:58 PM48 °FCool.No wind100%30.27 "HgN/A
9:58 PM48 °FFog.No wind94%30.27 "Hg0 mi
9:02 PM46 °FFog.No wind100%30.25 "Hg1 mi
8:03 PM48 °FFog.No wind94%30.25 "Hg1 mi
6:58 PM52 °FFog.2 mph100%30.27 "Hg4 mi
6:02 PM54 °FFog.2 mph94%30.25 "Hg1 mi
6:01 PM54 °FFog.1 mph94%30.25 "Hg1 mi
4:59 PM59 °FSunny.No wind77%30.24 "HgN/A
4:58 PM59 °FLight rain. Passing clouds.No wind77%30.25 "HgN/A
3:58 PM63 °FPassing clouds.1 mph59%30.26 "HgN/A
2:58 PM63 °FSunny.No wind59%30.26 "HgN/A
1:58 PM61 °FSunny.2 mph68%30.27 "HgN/A
12:58 PM57 °FSunny.No wind99%30.29 "HgN/A
12:02 PM54 °FScattered clouds.2 mph100%30.29 "HgN/A
11:58 AM54 °FLight rain. Scattered clouds.2 mph100%30.30 "HgN/A
10:58 AM51 °FLow clouds.2 mph99%30.32 "HgN/A
Weather by CustomWeather, © 2014

See weather overviewHow to use our weather pages